Flag for Sudan Weather past 2 weeks in Port Sudan, Sudan

Now
97 °F

Scattered clouds.


Feels Like: 107 °F
Forecast: 84 / 103 °F
Wind: 14 mph from West

Location: Jeddah King Abdul Aziz International Airport

Current Time: Sep 3, 2015 at 2:56:04 PM

Latest Report: Sep 3, 2015 at 2:00 PM


Visibility: N/A

Pressure: 29.62 "Hg

Humidity: 47%

Dew point: 73 °F

Location of Port SudanLocation

Historic Weather in Port Sudan — Graph

°F

Port Sudan temperature yesterday

Maximum temperature yesterday: 97 °F (at 11:00 AM)
Minimum temperature yesterday: 88 °F (at 4:00 AM)
Average temperature yesterday: 92 °F

Past Weeks' High & Low Weather Summary

 TemperatureHumidityPressure
High120 °F (Aug 20, 12:00 PM)84% (Aug 24, 5:00 AM)29.77 "Hg (Aug 24, 5:00 AM)
Low82 °F (Sep 3, 6:00 AM)5% (Aug 20, 12:00 PM)29.50 "Hg (Aug 20, 2:00 PM)
Average94 °F58%29.63 "Hg
* Reported Aug 19 1:00 PM — Sep 3 1:00 PM, Port Sudan, Weather by CustomWeather, © 2015

Note: Actual official high and low records may vary slightly from our data, if they occured in-between our weather recording intervals... More about our weather records

Advertising

Port Sudan weather history for previous 24 hours

 ConditionsComfort  
Time TempWeatherWind HumidityBarometerVisibility
1:00 PM
Thu, Sep 3
95 °FPartly sunny.12 mph50%29.65 "HgN/A
12:00 PM93 °FPartly sunny.9 mph56%29.68 "HgN/A
11:00 AM93 °FPartly sunny.5 mph53%29.71 "HgN/A
10:00 AM93 °FPartly sunny.5 mph56%29.71 "HgN/A
9:00 AM91 °FPartly sunny.9 mph56%29.71 "HgN/A
8:00 AM88 °FScattered clouds.5 mph62%29.68 "HgN/A
7:00 AM84 °FScattered clouds.9 mph74%29.68 "HgN/A
6:00 AM82 °FPassing clouds.7 mph74%29.65 "HgN/A
5:00 AM86 °FPassing clouds.5 mph62%29.65 "HgN/A
4:00 AM86 °FPassing clouds.5 mph62%29.65 "HgN/A
3:00 AM88 °FPassing clouds.No wind59%29.65 "HgN/A
2:00 AM88 °FPassing clouds.No wind59%29.68 "HgN/A
1:00 AM88 °FPassing clouds.No wind62%29.68 "HgN/A
12:00 AM90 °FPassing clouds.5 mph59%29.71 "HgN/A
11:00 PM
Wed, Sep 2
90 °FPassing clouds.5 mph63%29.71 "HgN/A
10:00 PM91 °FClear.7 mph59%29.71 "Hg10 mi
9:00 PM91 °FClear.9 mph59%29.71 "Hg10 mi
8:00 PM91 °FClear.9 mph59%29.68 "Hg10 mi
7:00 PM91 °FClear.12 mph59%29.68 "Hg10 mi
6:00 PM93 °FSunny.14 mph56%29.65 "Hg10 mi
5:00 PM93 °FSunny.14 mph56%29.65 "Hg10 mi
4:00 PM95 °FSunny.16 mph53%29.65 "Hg10 mi
3:00 PM95 °FSunny.14 mph53%29.65 "Hg10 mi
2:00 PM95 °FSunny.14 mph50%29.68 "Hg10 mi
Weather by CustomWeather, © 2015

See weather overviewHow to use our weather pages